Preview of NWS' New Version of Forecast
This preview is not operational and should not be used for support decisions.

Regional Weather Roundup (RWR)

Issued by National Weather Service (NWS)

                            
000
ASUS42 KTBW 190315
RWRFL 
FLORIDA REGIONAL WEATHER ROUNDUP
NATIONAL WEATHER SERVICE TAMPA BAY RUSKIN FL
1100 PM EDT TUE JUN 18 2019

NOTE: "FAIR" INDICATES FEW OR NO CLOUDS BELOW 12,000 FEET WITH NO
SIGNIFICANT WEATHER AND/OR OBSTRUCTIONS TO VISIBILITY.

FLZ001>010-012>015-112-114-115-190400-
PANHANDLE FLORIDA
  
CITY           SKY/WX    TMP DP  RH WIND       PRES   REMARKS
PENSACOLA      MOCLDY    76  76 100 CALM      29.92S                  
PENSACOLA NAS  MOCLDY    76  76 100 E3        29.92S                  
MILTON NAS     MOCLDY    74  74 100 E6        29.94                   
CRESTVIEW      MOCLDY    77  74  90 VRB3      29.96R                  
DUKE FIELD     LGT RAIN  76  76  99 SE3       29.94S                  
VALPARAISO     MOCLDY    77  74  91 E3        29.93R                  
MARY ESTHER    LGT RAIN  81  75  83 S6        29.91S                  
TRI COUNTY     FAIR      76  75  97 CALM      29.96S                  
PANAMA CITY    LGT RAIN  78  74  87 SE5       29.95S FOG              
TYNDALL AFB    FAIR      80  75  85 S7        29.95S                  
APALACHICOLA   FAIR      79  74  84 S7        29.97S                  

STATION/POSITION SKY/WX   TEMP    WIND        PRES    WAVE   SWELL
                          AIR SEA DIR/SP/G            HT/PER HT/PER
                          (F)     (DEG/KT/KT) (MB)    (FT/S) (FT/S)
30.1N   87.6W                                   N/A     4/ 6
29.2N   88.2W                     210/ 14/ 17 1013.9R   4/ 6
PANAMA CITY BEAC NOT AVBL
TOWER C          NOT AVBL

$$
FLZ011-016>038-118-127-128-134-139-239-190400-
NORTH FLORIDA
  
CITY           SKY/WX    TMP DP  RH WIND       PRES   REMARKS
MARIANNA       FAIR      76  74  93 S6        29.95S                  
TALLAHASSEE    FAIR      74  74 100 CALM      29.97S                  
PERRY          LGT RAIN  76  75  97 S3        30.01R                  
LIVE OAK       PTCLDY    75  75 100 S6        29.99R                  
CROSS CITY     LGT RAIN  75  73  94 W6        30.02R FOG              
LAKE CITY      FAIR      77  73  88 SW8       30.00R                  
GAINESVILLE    FAIR      82  75  79 SW7       30.03R                  
PALATKA        FAIR      77  75  94 SW6       30.02R                  
MAYPORT NAS    MOCLDY    80  75  84 SW5       29.98R                  
JACKSONVILLE   MOCLDY    77  74  90 W5        29.98R                  
JAX NAS        MOCLDY    81  73  76 SW6       29.99R                  
JAX CECIL      CLEAR     75  73  94 VRB3      29.99R                  
FERNANDINA BEA FAIR      80  75  84 SW8       29.97S                  
ST AUGUSTINE   FAIR      78  76  93 S6        30.01R                  
PALM COAST     FAIR      75  73  93 SW5       30.02R                  

STATION/POSITION SKY/WX   TEMP    WIND        PRES    WAVE   SWELL
                          AIR SEA DIR/SP/G            HT/PER HT/PER
                          (F)     (DEG/KT/KT) (MB)    (FT/S) (FT/S)
SHELL POINT      NOT AVBL
KEATON BEACH               76     160/  2/  3 1016.5R
CEDAR KEY                  83     240/  9/ 13 1016.5R
FERNANDINA       NOT AVBL
30.7N   81.3W                 82                N/A     2/ 5
MAYPORT          NOT AVBL
31.4N   80.9W              82 83  230/ 14/ 16 1013.9F   3/ 5   2/ 8
ST AUGUSTINE               78 80  210/  6/  7 1016.2R

$$
FLZ040-043>046-052-053-057-058-063-144-190400-
INTERIOR CENTRAL FLORIDA
  
CITY           SKY/WX    TMP DP  RH WIND       PRES   REMARKS
OCALA          FAIR      77  75  93 SW5       30.03R                  
LEESBURG       FAIR      77  75  93 S7        30.04R                  
SANFORD        FAIR      78  74  87 SW5       30.03R                  
ORLANDO EXEC   FAIR      79  76  90 SW7       30.04R                  
ORLANDO INTL   MOCLDY    78  75  90 S6        30.05R                  
KISSIMMEE      MOCLDY    77  76  96 S3        30.06R                  
WINTER HAVEN   MOCLDY    80  75  84 SW6       30.07R                  
LAKELAND       MOCLDY    77  72  83 NW6       30.06R                  
BARTOW         FAIR      79  75  89 S6        30.05R                  
SEBRING        FAIR      77  72  86 S5        30.07S                  
OKEECHOBEE     FAIR      75  72  88 CALM      30.06S                  

$$
FLZ041-047-054-059-064-141-147-190400-
EAST CENTRAL FLORIDA
  
CITY           SKY/WX    TMP DP  RH WIND       PRES   REMARKS
DAYTONA BEACH  MOCLDY    77  77 100 S6        30.03R                  
DELAND         FAIR      77  73  88 SW6       30.03R                  
JFK SPACE CTR  FAIR      78  66  67 SW5       30.03R                  
CAPE CANAVERAL FAIR      77   8   7 SW7       30.03R                  
PATRICK AFB    FAIR      78  76  96 SW15      30.04R                  
MELBOURNE      FAIR      76  72  87 S10       30.04R                  
VERO BEACH     FAIR      78  74  87 W8        30.06S                  
FT PIERCE      FAIR      77  73  87 SW6       30.04F                  
STUART         FAIR      79  72  78 S5        30.07F                  

STATION/POSITION SKY/WX   TEMP    WIND        PRES    WAVE   SWELL
                          AIR SEA DIR/SP/G            HT/PER HT/PER
                          (F)     (DEG/KT/KT) (MB)    (FT/S) (FT/S)
28.5N   80.2W              78 79  190/ 14/ 17 1017.4R   2/ 9   2/ 9
28.9N   78.5W              80 82  210/ 14/ 17   N/A     3/ 5   2/ 9
TRIDENT PIER     NOT AVBL
28.4N   80.5W                 78                N/A     2/ 3
27.5N   80.2W                 81                N/A     1/ 9

$$
FLZ050-056-061-142-242-148-248-149-249-151-251-155-255-
160-260-190400-
WEST CENTRAL FLORIDA
  
CITY           SKY/WX    TMP DP  RH WIND       PRES   REMARKS
CRYSTAL RIVER  MOCLDY    77  77 100 CALM      30.03R                  
INVERNESS      FAIR      77  77 100 CALM      30.03S                  
BROOKSVILLE    FAIR      78  75  90 S8        30.05R THUNDER          
CLEARWATER AIR FAIR      81  73  78 S6        30.04R                  
ST PETE CLEARW FAIR      80  77  90 S7        30.04R                  
TAMPA INTL     MOCLDY    82  76  81 S12       30.05R                  
TAMPA EXEC     HVY RAIN  77  75  94 SE9       30.07R                  
PLANT CITY       N/A    N/A N/A N/A MISG        N/A                   
MACDILL AFB    FAIR      82  77  83 S13       30.04S                  
PETER O KNIGHT CLOUDY    82  79  89 SW14      30.05R                  
ST PETERSBURG  LGT RAIN  83  76  79 SW9       30.02S                  
SARASOTA       FAIR      83  76  79 SW12      30.03S                  
VENICE         FAIR      84  77  79 S10       30.06S                  

STATION/POSITION SKY/WX   TEMP    WIND        PRES    WAVE   SWELL
                          AIR SEA DIR/SP/G            HT/PER HT/PER
                          (F)     (DEG/KT/KT) (MB)    (FT/S) (FT/S)
27.3N   84.2W                 83                N/A     2/ 5
CLEARWATER BEACH NOT AVBL
MIDDLE TAMPA BAY NOT AVBL
VENICE                     84 84  200/ 13/ 14 1017.4F

$$
FLZ066-069-070-075>078-162-262-165-265-190400-
SOUTHWEST FLORIDA AND KEYS
  
CITY           SKY/WX    TMP DP  RH WIND       PRES   REMARKS
PUNTA GORDA    FAIR      80  75  84 S5        30.06F                  
FT MYERS       FAIR      71  70  96 S3        30.05S                  
SOUTHWEST INTL MOCLDY    82  73  74 CALM      30.06S                  
NAPLES         FAIR      76  75  97 E3        30.06S                  
IMMOKALEE      FAIR      75  73  94 CALM      30.05S                  
MARATHON       MOCLDY    85  75  72 SE6       30.06R                  
KEY WEST NAS   FAIR      84  73  69 SE7       30.05R                  
KEY WEST INTL  FAIR      83  74  74 SE8       30.05R                  

STATION/POSITION SKY/WX   TEMP    WIND        PRES    WAVE   SWELL
                          AIR SEA DIR/SP/G            HT/PER HT/PER
                          (F)     (DEG/KT/KT) (MB)    (FT/S) (FT/S)
NAPLES           NOT AVBL
DRY TORTUGAS               84     140/ 10/ 11 1017.1F
SAND KEY                   83                 1017.3R
SOMBRERO KEY               83                 1017.1R

$$
FLZ067-068-071>074-168-172>174-190400-
SOUTHEAST FLORIDA 
  
CITY           SKY/WX    TMP DP  RH WIND       PRES   REMARKS
W PALM BEACH   FAIR      79  73  82 SW6       30.08R                  
BOCA RATON     PTCLDY    75  73  94 SW5       30.08R                  
FT LAUDER-EXEC FAIR      75  73  93 CALM      30.07R                  
FT LAUDERDALE  FAIR      76  72  87 CALM      30.07R                  
POMPANO BEACH  FAIR      76  73  91 SW3       30.07S                  
PEMBROKE PINES FAIR      75  72  90 CALM      30.09R                  
OPA LOCKA      CLEAR     75  73  94 MISG      30.08                   
MIAMI          MOCLDY    77  71  82 CALM      30.08R                  
WEST KENDALL   FAIR      75  75 100 CALM      30.07S                  
HOMESTEAD      MOCLDY    75  73  92 NE3       30.06R                  

STATION/POSITION SKY/WX   TEMP    WIND        PRES    WAVE   SWELL
                          AIR SEA DIR/SP/G            HT/PER HT/PER
                          (F)     (DEG/KT/KT) (MB)    (FT/S) (FT/S)
SETTLEMENT POINT           81     250/  8/  9 1018.6R

$$